Location: Unspecified
(58.7730°N, 5.8460°E)
Time: 11:04:05
(UTC+02:00)

Resurs 1-4 Rocket - Visible Passes

Search period start: 29 June 2016 00:00
Search period end: 09 July 2016 00:00
Orbit: 801 x 813 km, 98.4° (Epoch: 28 June)

Date Brightness Start Highest point End Pass type
(mag) Time Alt. Az. Time Alt. Az. Time Alt. Az.
01 Jul 4.4 03:06:09 10° NE 03:09:41 18° E 03:13:10 10° SE visible
02 Jul 4.6 02:42:42 10° NE 02:44:41 12° ENE 02:46:39 10° E visible
05 Jul 4.4 03:07:49 10° NE 03:11:25 18° E 03:15:00 10° SE visible
06 Jul 4.6 02:44:16 10° NE 02:46:26 12° ENE 02:48:36 10° ESE visible
